Hourly Weather Legnano

Today, 3 July, Friday

Time Temperature Precipitation Wind Pressure Humidity
00:00 +23°C° 1.2 mm 1 mps 741 mmHg 78%
01:00 +22°C° 0 mm 1 mps 741 mmHg 78%
02:00 +22°C° 0.2 mm 1 mps 741 mmHg 78%
03:00 +22°C° 0.2 mm 1 mps 741 mmHg 78%
04:00 +21°C° 0.2 mm 1 mps 740 mmHg 78%
05:00 +22°C° 0.2 mm 1 mps 741 mmHg 76%
06:00 +22°C° 0.2 mm 1 mps 741 mmHg 74%
07:00 +23°C° 0.2 mm 1 mps 741 mmHg 72%
08:00 +25°C° 0.1 mm 1 mps 741 mmHg 65%
09:00 +27°C° 0.1 mm 1 mps 741 mmHg 57%
10:00 +29°C° 0.1 mm 1 mps 741 mmHg 49%
11:00 +30°C° 0.1 mm 1 mps 742 mmHg 47%
12:00 +31°C° 0.1 mm 2 mps 742 mmHg 45%
13:00 +31°C° 0.1 mm 2 mps 742 mmHg 43%
14:00 +31°C° 0.4 mm 2 mps 741 mmHg 47%
15:00 +30°C° 0.4 mm 3 mps 741 mmHg 51%
16:00 +30°C° 0.4 mm 3 mps 741 mmHg 54%
17:00 +28°C° 3.4 mm 3 mps 741 mmHg 62%
18:00 +26°C° 3.4 mm 4 mps 742 mmHg 69%
19:00 +22°C° 3.4 mm 4 mps 742 mmHg 77%
20:00 +22°C° 3.1 mm 3 mps 742 mmHg 77%
21:00 +21°C° 3.1 mm 3 mps 743 mmHg 77%
22:00 +21°C° 3.1 mm 2 mps 743 mmHg 78%
23:00 +21°C° 0.7 mm 2 mps 744 mmHg 78%

Tomorrow, 4 July, Saturday

Time Temperature Precipitation Wind Pressure Humidity
00:00 +20°C° 0.7 mm 2 mps 744 mmHg 78%
01:00 +21°C° 0.7 mm 1 mps 744 mmHg 78%
02:00 +21°C° 0.1 mm 1 mps 744 mmHg 76%
03:00 +20°C° 0.1 mm 1 mps 744 mmHg 75%
04:00 +20°C° 0.1 mm 1 mps 744 mmHg 74%
05:00 +20°C° 0 mm 2 mps 744 mmHg 71%
06:00 +20°C° 0 mm 2 mps 744 mmHg 68%
07:00 +21°C° 0 mm 2 mps 745 mmHg 65%
08:00 +24°C° 0 mm 2 mps 745 mmHg 58%
09:00 +26°C° 0 mm 1 mps 745 mmHg 52%
10:00 +28°C° 0 mm 1 mps 745 mmHg 45%
11:00 +29°C° 0 mm 1 mps 745 mmHg 44%
12:00 +30°C° 0 mm 2 mps 745 mmHg 43%
13:00 +30°C° 0 mm 2 mps 744 mmHg 42%
14:00 +30°C° 0 mm 2 mps 744 mmHg 43%
15:00 +30°C° 0 mm 2 mps 744 mmHg 44%
16:00 +30°C° 0 mm 2 mps 744 mmHg 45%
17:00 +30°C° 0 mm 2 mps 744 mmHg 49%
18:00 +29°C° 0 mm 2 mps 744 mmHg 53%
19:00 +28°C° 0 mm 1 mps 744 mmHg 57%
20:00 +27°C° 0 mm 1 mps 744 mmHg 61%
21:00 +26°C° 0 mm 1 mps 745 mmHg 64%
22:00 +25°C° 0 mm 1 mps 745 mmHg 67%
23:00 +24°C° 0 mm 1 mps 745 mmHg 68%

Day after tomorrow, 5 July, Sunday

Time Temperature Precipitation Wind Pressure Humidity
00:00 +24°C° 0 mm 1 mps 746 mmHg 69%
01:00 +23°C° 0 mm 1 mps 746 mmHg 69%
02:00 +23°C° 0 mm 1 mps 746 mmHg 69%
03:00 +23°C° 0 mm 1 mps 745 mmHg 68%
04:00 +22°C° 0 mm 1 mps 745 mmHg 67%
05:00 +23°C° 0 mm 1 mps 745 mmHg 65%
06:00 +23°C° 0 mm 1 mps 745 mmHg 63%
07:00 +24°C° 0 mm 1 mps 745 mmHg 61%
08:00 +26°C° 0 mm 1 mps 745 mmHg 57%
09:00 +28°C° 0 mm 1 mps 745 mmHg 53%
10:00 +29°C° 0 mm 1 mps 745 mmHg 49%
11:00 +30°C° 0 mm 1 mps 745 mmHg 47%
12:00 +31°C° 0 mm 1 mps 745 mmHg 45%
13:00 +32°C° 0 mm 2 mps 744 mmHg 43%
14:00 +32°C° 0 mm 2 mps 744 mmHg 44%
15:00 +32°C° 0 mm 2 mps 744 mmHg 45%
16:00 +32°C° 0 mm 2 mps 743 mmHg 45%
17:00 +31°C° 0 mm 2 mps 743 mmHg 50%
18:00 +30°C° 0 mm 2 mps 743 mmHg 54%
19:00 +29°C° 0 mm 2 mps 743 mmHg 58%
20:00 +28°C° 0 mm 1 mps 743 mmHg 61%
21:00 +27°C° 0 mm 1 mps 744 mmHg 64%
22:00 +24°C° 0 mm 0 mps 744 mmHg 67%
23:00 +24°C° 0 mm 0 mps 744 mmHg 68%

6 July, Monday

Time Temperature Precipitation Wind Pressure Humidity
00:00 +25°C° 0 mm 1 mps 744 mmHg 70%
01:00 +25°C° 0 mm 1 mps 743 mmHg 71%
02:00 +24°C° 0 mm 1 mps 743 mmHg 71%
03:00 +24°C° 0 mm 1 mps 743 mmHg 71%
04:00 +23°C° 0 mm 1 mps 742 mmHg 71%
05:00 +24°C° 0 mm 1 mps 742 mmHg 69%
06:00 +25°C° 0 mm 1 mps 742 mmHg 68%
07:00 +26°C° 0 mm 1 mps 742 mmHg 66%
08:00 +27°C° 0 mm 1 mps 742 mmHg 61%
09:00 +29°C° 0 mm 1 mps 741 mmHg 56%
10:00 +31°C° 0 mm 1 mps 741 mmHg 51%
11:00 +31°C° 0 mm 1 mps 741 mmHg 49%
12:00 +32°C° 0 mm 2 mps 740 mmHg 47%
13:00 +34°C° 0 mm 2 mps 740 mmHg 45%
14:00 +34°C° 0 mm 2 mps 740 mmHg 46%
15:00 +34°C° 0 mm 2 mps 740 mmHg 47%
16:00 +34°C° 0 mm 2 mps 739 mmHg 47%
17:00 +32°C° 0.2 mm 2 mps 740 mmHg 52%
18:00 +31°C° 0.2 mm 1 mps 740 mmHg 56%
19:00 +30°C° 0.2 mm 1 mps 740 mmHg 61%
20:00 +29°C° 0.4 mm 1 mps 740 mmHg 63%
21:00 +27°C° 0.4 mm 2 mps 741 mmHg 65%
22:00 +26°C° 0.4 mm 2 mps 741 mmHg 68%
23:00 +25°C° 0.2 mm 3 mps 741 mmHg 63%

7 July, Tuesday

Time Temperature Precipitation Wind Pressure Humidity
00:00 +25°C° 0.2 mm 3 mps 741 mmHg 59%
01:00 +23°C° 0.2 mm 4 mps 741 mmHg 54%
02:00 +22°C° 0 mm 4 mps 741 mmHg 52%
03:00 +22°C° 0 mm 4 mps 741 mmHg 50%
04:00 +21°C° 0 mm 4 mps 741 mmHg 47%
05:00 +22°C° 0 mm 3 mps 741 mmHg 48%
06:00 +22°C° 0 mm 3 mps 741 mmHg 49%
07:00 +23°C° 0 mm 2 mps 742 mmHg 49%
08:00 +22°C° 0.2 mm 3 mps 742 mmHg 57%
09:00 +21°C° 0.2 mm 3 mps 742 mmHg 65%
10:00 +21°C° 0.2 mm 3 mps 742 mmHg 73%
11:00 +21°C° 0.5 mm 3 mps 742 mmHg 75%
12:00 +20°C° 0.5 mm 3 mps 742 mmHg 77%
13:00 +20°C° 0.5 mm 3 mps 742 mmHg 79%
14:00 +20°C° 0.1 mm 3 mps 742 mmHg 77%
15:00 +20°C° 0.1 mm 3 mps 743 mmHg 76%
16:00 +21°C° 0.1 mm 2 mps 743 mmHg 74%
17:00 +21°C° 0 mm 2 mps 743 mmHg 72%
18:00 +22°C° 0 mm 1 mps 743 mmHg 71%
19:00 +23°C° 0 mm 1 mps 743 mmHg 70%
20:00 +22°C° 0 mm 1 mps 743 mmHg 73%
21:00 +21°C° 0 mm 1 mps 744 mmHg 75%
22:00 +20°C° 0 mm 1 mps 744 mmHg 78%
23:00 +20°C° 0 mm 1 mps 744 mmHg 78%

8 July, Wednesday

Time Temperature Precipitation Wind Pressure Humidity
00:00 +20°C° 0 mm 1 mps 744 mmHg 79%
01:00 +20°C° 0 mm 1 mps 744 mmHg 80%
02:00 +19°C° 0 mm 1 mps 744 mmHg 80%
03:00 +19°C° 0 mm 1 mps 744 mmHg 81%
04:00 +19°C° 0 mm 1 mps 744 mmHg 81%
05:00 +20°C° 0 mm 1 mps 744 mmHg 77%
06:00 +21°C° 0 mm 1 mps 744 mmHg 74%
07:00 +21°C° 0 mm 1 mps 744 mmHg 71%
08:00 +23°C° 0 mm 1 mps 744 mmHg 65%
09:00 +25°C° 0 mm 1 mps 745 mmHg 59%
10:00 +27°C° 0 mm 1 mps 745 mmHg 53%
11:00 +28°C° 0 mm 1 mps 745 mmHg 50%
12:00 +29°C° 0 mm 2 mps 745 mmHg 47%
13:00 +29°C° 0 mm 2 mps 744 mmHg 43%
14:00 +30°C° 0 mm 2 mps 744 mmHg 43%
15:00 +30°C° 0 mm 2 mps 744 mmHg 43%
16:00 +30°C° 0 mm 2 mps 744 mmHg 43%
17:00 +29°C° 0 mm 2 mps 744 mmHg 47%
18:00 +28°C° 0 mm 2 mps 744 mmHg 51%
19:00 +27°C° 0 mm 2 mps 745 mmHg 55%
20:00 +26°C° 0 mm 1 mps 745 mmHg 58%
21:00 +25°C° 0 mm 1 mps 746 mmHg 61%
22:00 +24°C° 0 mm 1 mps 746 mmHg 63%
23:00 +23°C° 0 mm 1 mps 746 mmHg 64%
Show more